Home   Weather   San Marino   Past weeks

Flag for San Marino Past Weather in San Marino, San Marino — Yesterday and Last 2 Weeks

Now
77 °F

Scattered clouds.


Feels Like: 79 °F
Forecast: 62 / 73 °F
Wind: No wind

Location: Rimini Airport

Current Time: Aug 30, 2016 at 9:11:54 PM

Latest Report: Aug 30, 2016 at 8:15 PM


Visibility: N/A

Pressure: 30.07 "Hg (27.86 "Hg at 666m altitude)

Humidity: 79%

Dew Point: 70 °F

Location of San MarinoLocation

Past Weather in San Marino — Graph

°F

San Marino Temperature Yesterday

Maximum temperature yesterday: 82 °F (at 10:45 AM)
Minimum temperature yesterday: 66 °F (at 6:15 AM)
Average temperature yesterday: 76 °F

High & Low Weather Summary for the Past Weeks

 TemperatureHumidityPressure
High84 °F (Aug 17, 1:15 PM)100% (Aug 15, 11:45 PM)30.21 "Hg (Aug 15, 11:45 PM)
Low63 °F (Aug 23, 2:15 AM)51% (Aug 22, 3:45 PM)29.77 "Hg (Aug 17, 6:15 PM)
Average75 °F83%30.01 "Hg
* Reported Aug 15 7:15 PM — Aug 30 7:45 PM, San Marino, Weather by CustomWeather, © 2016

Note: Actual official high and low records may vary slightly from our data, if they occured in-between our weather recording intervals... More about our weather records

Advertising

San Marino Weather History for the Previous 24 Hours

Scroll right to see more
 ConditionsComfort  
Time TempWeatherWind HumidityBarometerVisibility
7:45 PM
Tue, Aug 30
79 °FScattered clouds.No wind74%30.07 "HgN/A
7:15 PM79 °FScattered clouds.No wind79%30.04 "HgN/A
6:45 PM79 °FSunny.3 mph79%30.04 "Hg10 mi
6:15 PM79 °FSunny.3 mph79%30.04 "Hg10 mi
5:45 PM81 °FSunny.6 mph74%30.04 "Hg10 mi
5:15 PM81 °FSunny.5 mph74%30.07 "Hg10 mi
4:45 PM81 °FSunny.5 mph74%30.07 "Hg10 mi
4:15 PM81 °FSunny.8 mph74%30.07 "Hg10 mi
3:45 PM82 °FSunny.9 mph74%30.07 "Hg10 mi
3:15 PM81 °FSunny.8 mph79%30.07 "Hg10 mi
2:45 PM82 °FSunny.8 mph74%30.07 "Hg10 mi
2:15 PM81 °FPassing clouds.2 mph79%30.07 "HgN/A
1:45 PM82 °FScattered clouds.9 mph79%30.07 "HgN/A
1:15 PM82 °FScattered clouds.8 mph74%30.07 "HgN/A
12:45 PM81 °FScattered clouds.5 mph79%30.07 "HgN/A
12:15 PM82 °FScattered clouds.5 mph74%30.07 "HgN/A
11:45 AM81 °FScattered clouds.5 mph79%30.07 "HgN/A
11:15 AM81 °FScattered clouds.2 mph79%30.07 "HgN/A
10:45 AM79 °FScattered clouds.5 mph84%30.07 "HgN/A
10:15 AM77 °FScattered clouds.7 mph89%30.07 "HgN/A
9:45 AM77 °FBroken clouds.10 mph89%30.07 "HgN/A
9:15 AM77 °FScattered clouds.9 mph94%30.04 "HgN/A
8:45 AM73 °FScattered clouds.10 mph100%30.04 "HgN/A
8:15 AM73 °FScattered clouds.12 mph100%30.04 "HgN/A
7:45 AM72 °FPassing clouds.5 mph100%30.04 "HgN/A
7:15 AM70 °FClear.No wind100%30.01 "Hg10 mi
6:45 AM70 °FClear.No wind100%29.98 "Hg10 mi
6:15 AM70 °FClear.No wind100%29.98 "Hg10 mi
5:45 AM70 °FClear.No wind100%29.98 "Hg10 mi
5:15 AM72 °FClear.No wind100%29.98 "Hg10 mi
4:45 AM70 °FClear.No wind100%29.98 "Hg10 mi
4:15 AM70 °FClear.No wind100%29.98 "Hg10 mi
2:15 AM72 °FClear.No wind100%29.98 "Hg10 mi
1:15 AM73 °FClear.No wind89%29.98 "Hg10 mi
12:45 AM73 °FClear.No wind89%29.98 "Hg10 mi
12:15 AM73 °FClear.No wind89%29.98 "Hg10 mi
11:45 PM
Mon, Aug 29
75 °FClear.2 mph89%29.95 "Hg10 mi
11:15 PM77 °FClear.2 mph89%29.95 "Hg10 mi
10:45 PM77 °FClear.No wind89%29.95 "Hg10 mi
10:15 PM79 °FClear.1 mph100%29.95 "Hg10 mi
9:45 PM79 °FClear.1 mph100%29.95 "Hg10 mi
9:15 PM79 °FClear.5 mph100%29.95 "Hg10 mi
Weather by CustomWeather, © 2016

See weather overviewHow to use our weather pages